Location: Camaret
(48.2753°N, 4.5961°W)
Time: 03:49:22
(UTC+00:00)

ARGOS - Pass Details

Date: 29 October 2020
Orbit: 819 x 835 km, 98.4° (Epoch: 01 December)

Event Time Altitude Azimuth Distance (km) Brightness Sun altitude
Exits shadow 19:58:52 35° 203° (SSW) 1,326 4.2 -29.6°
Maximum altitude 20:00:54 54° 260° (W) 1,012 3.8 -29.9°
Drops below altitude 10° 20:06:15 10° 338° (NNW) 2,458 6.0 -30.8°
Sets 20:08:41 0° 343° (NNW) 3,397 6.7 -31.2°
